"Pseudo-MPEC" for JgCz1Im
Created 2024 Jul 22 20:22:04 UT using Find_Orb
Click here for an explanation of pseudo-MPECs
Astrometry:
JgCz1Im*!C2024 06 30.29951 23 13 39.48 -19 58 17.8 ~71E7 22.0 rXNEOCPW84
JgCz1Im !C2024 06 30.30452 23 13 39.80 -19 58 12.8 ~71E7 22.1 rXNEOCPW84
JgCz1Im !C2024 06 30.30954 23 13 40.10 -19 58 08.1 ~71E7 22.1 rXNEOCPW84
JgCz1Im !C2024 06 30.31453 23 13 40.44 -19 58 03.1 ~71E7 22.3 rXNEOCPW84
JgCz1Im !C2024 06 30.31953 23 13 40.74 -19 57 58.4 ~71E7 22.1 rXNEOCPW84
JgCz1Im !C2024 06 30.32454 23 13 41.05 -19 57 53.7 ~71E7 22.3 rXNEOCPW84
JgCz1Im !C2024 06 30.32954 23 13 41.34 -19 57 49.0 ~71E7 22.0 rXNEOCPW84
JgCz1Im !C2024 06 30.34210 23 13 42.14 -19 57 36.9 ~71E7 22.4 rXNEOCPW84
JgCz1Im !C2024 06 30.34713 23 13 42.45 -19 57 32.0 ~71E7 22.6 rXNEOCPW84
JgCz1Im !C2024 06 30.35467 23 13 42.91 -19 57 24.8 ~71E7 22.2 rXNEOCPW84
JgCz1Im C2024 06 30.56660223 13 57.140-19 54 09.64 ~72Kq 22.16GVNEOCPF52
JgCz1Im C2024 06 30.59052723 13 58.609-19 53 46.70 ~72Kq 21.72GVNEOCPF52
JgCz1Im C2024 06 30.60250823 13 59.330-19 53 34.95 ~72Kq 22.32GVNEOCPF52
Station data:
(F52) Pan-STARRS 2, Haleakala (N20.707382 W156.255910) US/Hawaii.
Observers J. Bulger, T. Dukes, T. Lowe, A. Schultz, M. Willman. Measurers
K. Chambers, S. Chastel, T. de Boer, L. Denneau, J. Fairlamb, H.
Flewelling, M. Huber, C.-C. Lin, E. Magnier, Y. Ramanjooloo, R. Wainscoat,
R. Weryk. 1.8-m Ritchey-Chrétien + CCD.
(W84) Cerro Tololo-DECam (S30.169594 W70.806420) Chile. Observer F. Valdes.
Measurer S. Deen. 4.0-m reflector + CCD.
Orbital elements: JgCz1Im
Perihelion 2024 Sep 27.42627 +/- 76.7 TT = 10:13:49 (JD 2460580.92627)
Epoch 2024 Jun 30.0 TT = JDT 2460491.5 Earth MOID: 0.0711 Me: 0.0844
M 304.01569799 +/- 48 Ma: 0.0698 AutoNEOCP
n 0.62603865 +/- 0.297 Peri. 128.45112 +/- 100
a 1.35332451 +/- 0.429 Node 313.69418 +/- 11
e 0.7221136 +/- 0.236 Incl. 32.18694 +/- 13
P 1.574/575.034d H 20.75 G 0.15 U 11.9 SR
q 0.37607047 +/- 0.466 Q 2.33057855 +/- 4.9 (J2000 ecliptic)
From 13 observations 2024 June 30 (7.3 hr); mean residual 0".11
Residuals in arcseconds: 240630 W84 .11- .25- 240630 W84 .06+ .01+ 240630 F52 .07+ .06+ 240630 W84 .01- .01- 240630 W84 .23- .07- 240630 F52 .06+ .10- 240630 W84 .19- .09- 240630 W84 .08+ .02+ 240630 F52 .12- .04+ 240630 W84 .22+ .16+ 240630 W84 .07+ .10+ 240630 W84 .07+ .09+ 240630 W84 .02- .07+ Ephemerides (geocentric): Date (UTC) HH RA Dec delta r elong mag " sig PA ---- -------- ------------ ------------ ------ ------ ----- --- -------- 2024 07 22 20 23 40 14.047 -07 55 46.33 .30962 1.2297 127.6 20.3 443' 150 2024 07 22 21 23 40 17.859 -07 52 57.05 .30893 1.2292 127.7 20.3 448' 150 2024 07 22 22 23 40 21.680 -07 50 07.05 .30825 1.2287 127.7 20.2 453' 150 2024 07 22 23 23 40 25.510 -07 47 16.34 .30758 1.2282 127.7 20.2 458' 150 2024 07 23 00 23 40 29.348 -07 44 24.91 .30690 1.2277 127.7 20.2 463' 150 2024 07 23 01 23 40 33.196 -07 41 32.76 .30622 1.2273 127.7 20.2 469' 150 2024 07 23 02 23 40 37.052 -07 38 39.87 .30554 1.2268 127.7 20.2 474' 150 2024 07 23 03 23 40 40.918 -07 35 46.26 .30486 1.2263 127.7 20.2 480' 150 2024 07 23 04 23 40 44.792 -07 32 51.90 .30418 1.2258 127.7 20.2 485' 150 2024 07 23 05 23 40 48.676 -07 29 56.80 .30350 1.2253 127.7 20.2 491' 150 2024 07 23 06 23 40 52.569 -07 27 00.95 .30282 1.2248 127.7 20.2 497' 150 2024 07 23 07 23 40 56.472 -07 24 04.35 .30215 1.2243 127.7 20.2 503' 150 2024 07 23 08 23 41 00.384 -07 21 06.99 .30147 1.2239 127.7 20.2 509' 150 2024 07 23 09 23 41 04.305 -07 18 08.87 .30079 1.2234 127.8 20.2 515' 150 2024 07 23 10 23 41 08.236 -07 15 09.99 .30012 1.2229 127.8 20.2 521' 150 2024 07 23 11 23 41 12.177 -07 12 10.33 .29944 1.2224 127.8 20.2 527' 150 2024 07 23 12 23 41 16.127 -07 09 09.89 .29876 1.2219 127.8 20.2 533' 150 2024 07 23 13 23 41 20.087 -07 06 08.68 .29809 1.2214 127.8 20.2 540' 150 2024 07 23 14 23 41 24.057 -07 03 06.68 .29741 1.2209 127.8 20.2 546' 150 2024 07 23 15 23 41 28.037 -07 00 03.88 .29674 1.2204 127.8 20.2 553' 150 2024 07 23 16 23 41 32.027 -06 57 00.29 .29606 1.2199 127.8 20.2 560' 150 2024 07 23 17 23 41 36.027 -06 53 55.90 .29539 1.2195 127.8 20.1 566' 150 2024 07 23 18 23 41 40.037 -06 50 50.70 .29471 1.2190 127.8 20.1 573' 150 2024 07 23 19 23 41 44.057 -06 47 44.69 .29404 1.2185 127.8 20.1 580' 150 2024 07 23 20 23 41 48.088 -06 44 37.86 .29337 1.2180 127.8 20.1 587' 150 2024 07 23 21 23 41 52.129 -06 41 30.21 .29269 1.2175 127.8 20.1 594' 149 2024 07 23 22 23 41 56.180 -06 38 21.73 .29202 1.2170 127.8 20.1 602' 149 2024 07 23 23 23 42 00.242 -06 35 12.42 .29135 1.2165 127.8 20.1 609' 149 2024 07 24 00 23 42 04.315 -06 32 02.27 .29067 1.2160 127.9 20.1 616' 149 2024 07 24 01 23 42 08.398 -06 28 51.28 .29000 1.2155 127.9 20.1 624' 149 2024 07 24 02 23 42 12.492 -06 25 39.44 .28933 1.2150 127.9 20.1 632' 149 2024 07 24 03 23 42 16.597 -06 22 26.74 .28866 1.2146 127.9 20.1 639' 149 2024 07 24 04 23 42 20.713 -06 19 13.19 .28799 1.2141 127.9 20.1 647' 149 2024 07 24 05 23 42 24.841 -06 15 58.76 .28732 1.2136 127.9 20.1 655' 149 2024 07 24 06 23 42 28.979 -06 12 43.47 .28665 1.2131 127.9 20.1 663' 149 2024 07 24 07 23 42 33.128 -06 09 27.30 .28598 1.2126 127.9 20.1 671' 149 2024 07 24 08 23 42 37.289 -06 06 10.25 .28531 1.2121 127.9 20.1 680' 149 2024 07 24 09 23 42 41.461 -06 02 52.30 .28464 1.2116 127.9 20.1 688' 148 2024 07 24 10 23 42 45.645 -05 59 33.47 .28397 1.2111 127.9 20.1 696' 148 2024 07 24 11 23 42 49.840 -05 56 13.73 .28330 1.2106 127.9 20.0 705' 148 2024 07 24 12 23 42 54.047 -05 52 53.09 .28263 1.2101 127.9 20.0 714' 148 2024 07 24 13 23 42 58.265 -05 49 31.53 .28196 1.2096 127.9 20.0 722' 148 2024 07 24 14 23 43 02.496 -05 46 09.06 .28129 1.2091 127.9 20.0 731' 148 2024 07 24 15 23 43 06.738 -05 42 45.66 .28063 1.2087 127.9 20.0 740' 148 2024 07 24 16 23 43 10.992 -05 39 21.34 .27996 1.2082 127.9 20.0 749' 148 2024 07 24 17 23 43 15.259 -05 35 56.07 .27929 1.2077 127.9 20.0 759' 147 2024 07 24 18 23 43 19.538 -05 32 29.87 .27863 1.2072 127.9 20.0 768' 147 2024 07 24 19 23 43 23.829 -05 29 02.71 .27796 1.2067 127.9 20.0 777' 147